Weather Roundup
Issued by NWS

Home | Current Version | Previous Version | Graphics & Text | Print | Product List | Glossary Off
Versions: 1 2 3 4 5 6 7 8 9 10 11 12 13 14 15 16 17 18 19 20 21 22 23 24 25 26 27 28 29 30 31 32 33 34 35 36 37 38 39 40 41 42 43 44 45 46 47 48 49 50

000
NZUS93 KARX 262110
HRRWXR

CURRENT HOURLY OBSERVATIONS ACROSS
MUCH OF THE UPPER MISSISSIPPI VALLEY
NATIONAL WEATHER SERVICE LA CROSSE WI
400 PM CDT WED AUG 26 2015


...SOUTHEAST MINNESOTA...


CITY           SKY/WX    TMP DP  RH WIND       PRES   REMARKS
ROCHESTER      SUNNY     72  54  53 VRB3      30.15F
ROCHESTER/MAYO FAIR      74  49  40 NE5       30.15F
WINONA         SUNNY     73  50  43 NE6       30.14F
AUSTIN         SUNNY     73  55  53 CALM      30.15S
ALBERT LEA     SUNNY     73  50  43 SE3       30.15S
DODGE CENTER   SUNNY     72  54  53 CALM      30.16S
PRESTON        SUNNY     71  50  46 CALM      30.16F
OWATONNA       SUNNY     73  52  46 CALM      30.15S
FARIBAULT      SUNNY     73  52  46 CALM      30.15F
$$

...ELSEWHERE IN MINNESOTA...


CITY           SKY/WX    TMP DP  RH WIND       PRES   REMARKS
MINNEAPOLIS    SUNNY     75  51  43 SE8       30.13F
INTNL FALLS    SUNNY     71  47  42 N5        30.14F
DULUTH         SUNNY     73  45  36 VRB3      30.15F
RED WING       SUNNY     75  48  38 N3        30.13F
REDWOOD FALLS  SUNNY     74  49  41 S10       30.12F
MANKATO        SUNNY     72  52  49 S5        30.15S
WORTHINGTON    SUNNY     72  54  53 SE8       30.14F
FAIRMONT       SUNNY     72  48  43 SE3       30.14F
$$

...SOUTHWEST WISCONSIN...


CITY           SKY/WX    TMP DP  RH WIND       PRES   REMARKS
LA CROSSE      SUNNY     75  50  41 VRB6      30.13F
PRAIRIE DU CHI SUNNY     75  43  31 NW3       30.12F
BOSCOBEL       SUNNY     79  52  38 N6        30.14F
LONE ROCK      SUNNY     73  51  46 VRB3      30.14F
PLATTEVILLE    MOSUNNY   71  57  60 N3        30.15S
FORT MC COY    SUNNY     74  47  37 NW7       30.14F
CAMP DOUGLAS   MOSUNNY   75  55  50 VRB6      30.13F
VIROQUA        FAIR      73  50  44 N3        30.15F
WIS DELLS      SUNNY     73  49  42 N6        30.14S
$$

...ELSEWHERE IN WISCONSIN...


CITY           SKY/WX    TMP DP  RH WIND       PRES   REMARKS
MILWAUKEE      CLOUDY    64  52  64 E5        30.15F
MADISON        PTSUNNY   68  52  56 N3        30.15F
GREEN BAY      PTSUNNY   70  55  59 CALM      30.12F
EAU CLAIRE     MOSUNNY   73  52  47 VRB6      30.14F
BLACK RVR FLS  FAIR      74  48  39 NW6       30.13F
MEDFORD        SUNNY     69  53  54 NW8       30.14F
WAUSAU         MOSUNNY   73  51  46 W10       30.11F
WIS RAPIDS     SUNNY     73  49  42 NW10      30.14F
MARSHFIELD     SUNNY     73  51  46 NW7       30.14F
RICE LAKE      SUNNY     71  51  49 W7        30.16F
$$

...NORTHEAST IOWA...


CITY           SKY/WX    TMP DP  RH WIND       PRES   REMARKS
DECORAH        SUNNY     73  50  43 VRB6      30.14F
MASON CITY     SUNNY     74  51  44 CALM      30.16F
CHARLES CITY   SUNNY     73  52  46 VRB5      30.14F
OELWEIN        SUNNY     73  52  46 CALM      30.15F
$$

...ELSEWHERE IN IOWA...


CITY           SKY/WX    TMP DP  RH WIND       PRES   REMARKS
DES MOINES     PTSUNNY   76  50  40 SE8       30.14S
IOWA CITY      SUNNY     77  53  43 VRB3      30.15F
FORT DODGE     SUNNY     73  52  46 SE5       30.16F
$$

...NORTHERN ILLINOIS...


CITY           SKY/WX    TMP DP  RH WIND       PRES   REMARKS
CHICAGO-OHARE  CLOUDY    66  52  60 N6        30.16S
CHICAGO-MIDWAY CLOUDY    67  52  58 NE5       30.16S
MOLINE         PTSUNNY   78  53  41 NW7       30.14F
ROCKFORD       PTSUNNY   71  53  52 CALM      30.17F
PEORIA         PTSUNNY   73  53  49 NE7       30.16F
$$

NOTE: "FAIR" INDICATES FEW OR NO CLOUDS BELOW 12,000 FEET WITH NO
SIGNIFICANT WEATHER AND/OR OBSTRUCTIONS TO VISIBILITY. WIND
SPEEDS ARE IN MILES-PER-HOUR.



USA.gov is the U.S. government's official web portal to all federal, state and local government web resources and services.